STARLINK-31310, 59092

Orbit data source: Space-Track

STARLINK-31310, 59092 is a payload satellite owned by SpaceX/Seattle (US) in LEO that was launched on Thu, 29 Feb 2024 UTC via an FALCON 9 launch vehicle from the Air Force Eastern Test Range (AFETR). Payload-class satellites include a variety of spacecraft equipped with specific instruments for various scientific and technological missions. These include communications satellites like Starlink; space stations such as the ISS; scientific satellites like the Hubble; Earth observation satellites from companies like Planet Labs, Umbra, and HawkEye 360; GPS; miniature CubeSats for education and research; and military/defense satellites.

Loading next visibility...
Identifier
59092, 2024-041U
Orbit
LEO
Country
Flag of USUS
Related business
Manufacturer
SpaceX/Seattle
Mission
Operational Commercial Communications
Bus & Motor
STARLINK V2M, Unknown motor
Mass
730 kg wet, ~700 kg dry
Launch date (UTC)
2024-02-29 (2 years ago)
Launch vehicle
FALCON 9
Launch site
Air Force Eastern Test Range (AFETR)
Object type
Payload
Rocket body
Debris
Shape & HBR
Box + 2 Pan, 17.7 m
Radar Cross Section
33.884 m², Large (>1 m²)

Expand to show TLE details & history
Last TLE update: 2 days ago

TLE from 2 days ago
0 STARLINK-31310
1 59092U 24041U   26171.00072198 -.00001990  00000-0 -62817-4 0  9999
2 59092  43.0013  93.3296 0002189 278.4269  81.6335 15.27561141129919
Epoch: 2026-06-20T00:01Z
TLE epoch observation values (Epoch: 2026-06-20T00:01:02.379Z)
Latitude
0.00004°
Longitude
-175.1519°
Altitude
482.663 km
Speed
7.626 km/s
True Right ascension
06h 13m 19s
True Declination
0° 00' 00"
Sunlit
Object was in daylight at epoch
Visualization orbit readout
Latitude
Unknown
Longitude
Unknown
Altitude
Unknown
Speed
Unknown
Apparent Right ascension
Unknown
Apparent Declination
Unknown
Sunlit
N/A
Visualization observer readout
Local Sidereal Time
21:25:46
Azimuth
Unknown
Elevation
Unknown
Doppler factor
Unknown
Orbital elements
Apogee altitude
486.553 km
Perigee altitude
483.548 km
Semi-major axis
6,863.188 km
Eccentricity
0.00022
Inclination
43.0013°
RAAN
93.3296°
Arg. of periapsis
278.4269°
True anomaly
81.65832°
Mean anomaly
81.6335°
Eccentric anomaly
81.64591°
Mean motion
3.81728 °/min
Orbital period
94.31 mins
BSTAR
-0.000062817
Loading maneuver chart data...
Computing Atmospheric mass density...
Loading historical data...
Loading historical data...
Loading historical data...
Loading historical data...
Loading historical data...
Loading historical data...
Loading historical data...

Documentation

Showing up to 5 results
|